[[{"header":{"parameterUnit":"m.s-1","parameterCategory":1,"la1":30.2991,"la2":30.254,"lo1":-89.0895,"lo2":-89.0444,"dy":0.0017,"dx":0.0017,"nx":28,"ny":28,"refTime":"2023-11-13T03:00:00:Z","depth":0,"parameterNumber":2,"parameterNumberName":"U-component_of_WINDS"},"data":[0,0,0,0,0,0,0,0,0,0,0,0,0,0,0,0,0,0,0,0,0,0,0,0,0,0,0,0,0,0,0,0,0,0,0,0,0,0,0,0,0,0,0,0,0,0,0,0,0,0,0,0,0,0,0,0,0,0,-3.5597,-3.5598,0,-3.5711,-3.5712,-3.5713,-3.5645,-3.5642,-3.5638,-3.5635,-3.5756,-3.5762,-3.5769,0,0,0,0,0,0,0,0,0,0,0,0,0,-3.5325,-3.533,-3.5597,-3.5598,-3.56,-3.571,-3.5712,-3.5713,-3.5646,-3.5642,-3.5638,-3.5634,-3.5754,-3.5762,-3.5769,0,0,0,0,0,0,0,0,0,0,0,0,0,-3.5441,-3.5332,-3.5596,-3.5579,-3.5578,-3.571,-3.5712,-3.5714,-3.5646,-3.5641,-3.5637,-3.5632,-3.5752,-3.5761,-3.577,-3.5927,0,0,-3.5799,-3.5803,0,0,0,0,0,0,0,0,-3.5435,-3.5451,-3.558,-3.558,-3.558,-3.5658,-3.566,-3.5785,-3.5648,-3.5621,-3.5635,-3.563,-3.5728,-3.5739,-3.5771,-3.5932,-3.5938,-3.58,-3.5806,-3.581,-3.5812,0,0,0,0,0,0,0,-3.5427,-3.5446,-3.5642,-3.5582,-3.5582,-3.5567,-3.5578,-3.5684,-3.5701,-3.5623,-3.5618,-3.5632,-3.5727,-3.5762,-3.5774,-3.5939,-3.58,-3.5808,-3.5814,-3.5817,-3.6236,-3.6241,0,0,0,0,0,0,-3.5419,-3.544,-3.5638,-3.5645,-3.5494,-3.5576,-3.5588,-3.5638,-3.5699,-3.5704,-3.5636,-3.5629,-3.5749,-3.5763,-3.5778,-3.5966,-3.581,-3.5818,-3.5824,-3.623,-3.6237,-3.6243,0,0,0,0,0,0,-3.5414,-3.5438,-3.5634,-3.5541,-3.5565,-3.5585,-3.5643,-3.5643,-3.5678,-3.571,-3.5713,-3.5669,-3.5745,-3.5764,-3.589,-3.5969,-3.5823,-3.5831,-3.6224,-3.6232,-3.624,-3.6344,0,0,0,0,0,0,-3.5406,-3.5436,-3.5495,-3.5543,-3.557,-3.5743,-3.5647,-3.5649,-3.5694,-3.5685,-3.5741,-3.5746,-3.5743,-3.5876,-3.59,-3.598,-3.5838,-3.6217,-3.6228,-3.6237,-3.6333,-3.6354,-3.6372,0,0,0,0,0,-3.5397,-3.552,-3.5498,-3.5523,-3.5644,-3.5748,-3.5764,-3.5757,-3.5701,-3.5761,-3.5781,-3.5744,-3.5956,-3.589,-3.5915,-3.5999,-3.6212,-3.6225,-3.6237,-3.6325,-3.635,-3.6372,0,0,0,0,0,0,-3.5483,-3.5526,-3.5502,-3.5645,-3.5693,-3.5736,-3.5812,-3.5784,-3.585,-3.584,-3.5829,-3.5843,-3.5974,-3.5999,-3.5924,-3.6155,-3.6076,-3.6094,-3.6134,-3.6159,-3.6178,-3.617,-3.5846,0,0,0,0,0,-3.5518,-3.5597,-3.5632,-3.5754,-3.5779,-3.5792,-3.5837,-3.5827,-3.5877,-3.5898,-3.5927,-3.5978,-3.6056,-3.6109,-3.6182,-3.6336,-3.6348,-3.6406,-3.6426,-3.6442,-3.6458,-3.6542,-3.6569,-3.6283,-3.6283,-3.6283,0,0,-3.5592,-3.5626,-3.5677,-3.5772,-3.5809,-3.5893,-3.5809,-3.5902,-3.5964,-3.5912,-3.6033,-3.6056,-3.6113,-3.6253,-3.6317,-3.6278,-3.6539,-3.6457,-3.647,-3.6478,-3.6558,-3.6585,-3.6609,-3.6292,-3.629,-3.6289,0,0,-3.5771,-3.5803,-3.591,-3.5947,-3.6002,-3.601,-3.6035,-3.6083,-3.6096,-3.6216,-3.6179,-3.6254,-3.6388,-3.6431,-3.647,-3.6664,-3.6633,-3.6688,-3.6791,-3.6874,-3.6896,-3.6916,-3.6987,-3.7013,-3.6704,-3.6704,-3.6704,0,-3.5857,-3.598,-3.5968,-3.6063,-3.6107,-3.6062,-3.617,-3.6207,-3.6285,-3.6317,-3.6272,-3.644,-3.6475,-3.6626,-3.6673,-3.6706,-3.6736,-3.6683,-3.6894,-3.6914,-3.6932,-3.7,-3.7026,-3.6711,-3.671,-3.6709,-3.6709,0,-3.6084,-3.6171,-3.625,-3.6324,-3.6377,-3.6478,-3.6482,-3.6537,-3.6523,-3.6535,-3.6659,-3.6699,-3.678,-3.6815,-3.6802,-3.6964,-3.6939,-3.6894,-3.6815,-3.6966,-3.703,-3.7055,-3.672,-3.6718,-3.6716,-3.6714,0,0,-3.6322,-3.6387,-3.6417,-3.645,-3.6507,-3.6575,-3.6674,-3.6753,-3.6801,-3.6855,-3.694,-3.7055,-3.7014,-3.7058,-3.705,-3.7122,-3.7275,-3.7068,-3.707,-3.7107,-3.7458,-3.7492,-3.7523,-3.7254,-3.7259,-3.7262,-3.7454,0,-3.6505,-3.6678,-3.6669,-3.6832,-3.6913,-3.687,-3.6957,-3.7003,-3.7017,-3.7088,-3.7104,-3.7186,-3.7125,-3.7152,-3.7221,-3.7242,-3.7346,-3.7227,-3.7335,-3.7339,-3.7324,-3.7555,-3.7592,-3.7771,-3.7478,-3.7482,-3.7485,0,-3.6743,-3.6804,-3.6974,-3.702,-3.7053,-3.7132,-3.7203,-3.7271,-3.7322,-3.7327,-3.7377,-3.7357,-3.7459,-3.7376,-3.7518,-3.7438,-3.7481,-3.7498,-3.7504,-3.7516,-3.7423,-3.7575,-3.7827,-3.7855,-3.7524,-3.7521,-3.7518,0,-3.6901,-3.7026,-3.7144,-3.7174,-3.723,-3.7286,-3.7312,-3.7358,-3.7406,-3.7468,-3.75,-3.7574,-3.7615,-3.7674,-3.7675,-3.7613,-3.7819,-3.7735,-3.7828,-3.7829,-3.7875,-3.7873,-3.814,-3.79,-3.79,-3.7899,-3.7899,0,-3.7108,-3.7214,-3.7216,-3.729,-3.7408,-3.7397,-3.7515,-3.7535,-3.7577,-3.7654,-3.7622,-3.7695,-3.7691,-3.7766,-3.7768,-3.7886,-3.7905,-3.7913,-3.7913,-3.7918,-3.7917,-3.7947,-3.7936,-3.7906,-3.7905,-3.7903,-3.7902,0,-3.7306,-3.7311,-3.7438,-3.7479,-3.7492,-3.7578,-3.7615,-3.7685,-3.7695,-3.7794,-3.7816,-3.7834,-3.792,-3.7926,-3.8027,-3.8028,-3.8172,-3.8157,-3.8155,-3.8153,-3.8246,-3.8238,-3.8544,-3.8585,-3.8316,-3.8319,-3.8321,0,-3.7439,-3.7519,-3.7569,-3.7618,-3.7647,-3.7726,-3.7774,-3.7767,-3.7819,-3.7883,-3.7946,-3.8029,-3.8095,-3.8236,-3.8259,-3.8336,-3.8324,-3.8426,-3.8335,-3.8338,-3.8328,-3.8324,-3.8332,-3.8444,-3.8447,-3.8449,-3.8451,0,-3.7674,-3.7673,-3.7742,-3.7814,-3.7872,-3.7928,-3.798,-3.8022,-3.8021,-3.8081,-3.8169,-3.822,-3.8322,-3.8406,-3.8481,-3.8509,-3.8482,-3.8479,-3.8505,-3.8512,-3.8508,-3.8513,-3.8205,-3.8473,-3.8471,-3.8469,-3.8468,-3.8467,-3.7845,-3.7915,-3.7961,-3.804,-3.8078,-3.8128,-3.8196,-3.8214,-3.8286,-3.8368,-3.8359,-3.8457,-3.8506,-3.8604,-3.8638,-3.8716,-3.8681,-3.8719,-3.8728,-3.8738,-3.8749,-3.8493,-3.8729,-3.8729,-3.8728,-3.8728,-3.8727,0,-3.808,-3.8107,-3.818,-3.8254,-3.8316,-3.8282,-3.8338,-3.8393,-3.8479,-3.8526,-3.8592,-3.8693,-3.8774,-3.8802,-3.8882,-3.8938,-3.8927,-3.8959,-3.8956,-3.8964,-3.8774,-3.8744,-3.8967,-3.8967,-3.8967,-3.8967,-3.8967,-3.8967,-3.821,-3.8327,-3.8331,-3.8467,-3.8494,-3.8588,-3.8623,-3.8669,-3.8707,-3.8821,-3.8887,-3.8905,-3.8945,-3.9027,-3.9101,-3.9107,-3.9139,-3.9177,-3.9178,-3.9001,-3.8977,-3.8954,-3.8926,-3.9183,-3.9183,-3.9361,-3.9363,-3.9364]},{"header":{"parameterUnit":"m.s-1","parameterCategory":1,"la1":30.2991,"la2":30.254,"lo1":-89.0895,"lo2":-89.0444,"dy":0.0017,"dx":0.0017,"nx":28,"ny":28,"refTime":"2023-11-13T03:00:00:Z","depth":0,"parameterNumber":3,"parameterNumberName":"V-component_of_WINDS"},"data":[0,0,0,0,0,0,0,0,0,0,0,0,0,0,0,0,0,0,0,0,0,0,0,0,0,0,0,0,0,0,0,0,0,0,0,0,0,0,0,0,0,0,0,0,0,0,0,0,0,0,0,0,0,0,0,0,0,0,-4.1741,-4.1741,0,-4.1774,-4.1775,-4.1775,-4.1727,-4.1725,-4.1723,-4.1722,-4.1754,-4.1756,-4.1759,0,0,0,0,0,0,0,0,0,0,0,0,0,-4.1631,-4.1634,-4.1741,-4.1741,-4.1742,-4.1774,-4.1775,-4.1775,-4.1727,-4.1725,-4.1723,-4.1721,-4.1753,-4.1756,-4.1759,0,0,0,0,0,0,0,0,0,0,0,0,0,-4.1673,-4.1634,-4.1741,-4.1722,-4.172,-4.1774,-4.1775,-4.1775,-4.1728,-4.1725,-4.1722,-4.172,-4.1752,-4.1756,-4.1759,-4.1833,0,0,-4.1771,-4.1772,0,0,0,0,0,0,0,0,-4.1671,-4.1677,-4.1724,-4.1723,-4.1722,-4.1744,-4.1748,-4.1795,-4.1728,-4.1725,-4.1722,-4.1719,-4.1753,-4.1756,-4.1768,-4.1835,-4.1836,-4.1771,-4.1773,-4.1775,-4.1776,0,0,0,0,0,0,0,-4.1668,-4.1676,-4.1754,-4.1725,-4.1723,-4.171,-4.1713,-4.1757,-4.1752,-4.1725,-4.1721,-4.1726,-4.1751,-4.1764,-4.1768,-4.1836,-4.1771,-4.1774,-4.1776,-4.1778,-4.1962,-4.1965,0,0,0,0,0,0,-4.1668,-4.1674,-4.1753,-4.1755,-4.169,-4.1714,-4.1718,-4.1739,-4.1752,-4.1751,-4.1728,-4.1724,-4.1759,-4.1764,-4.1769,-4.1854,-4.1775,-4.1778,-4.178,-4.196,-4.1963,-4.1966,0,0,0,0,0,0,-4.1666,-4.1676,-4.1752,-4.1713,-4.1722,-4.1719,-4.1743,-4.1741,-4.1754,-4.1755,-4.1753,-4.1743,-4.1758,-4.1764,-4.1817,-4.1855,-4.178,-4.1783,-4.1956,-4.1961,-4.1964,-4.2027,0,0,0,0,0,0,-4.1663,-4.1675,-4.1704,-4.1714,-4.1724,-4.18,-4.1746,-4.1744,-4.1761,-4.1755,-4.1768,-4.1767,-4.1756,-4.1812,-4.1821,-4.1859,-4.1786,-4.1953,-4.1958,-4.1963,-4.2021,-4.2033,-4.2042,0,0,0,0,0,-4.1659,-4.172,-4.1706,-4.1716,-4.1761,-4.1803,-4.1808,-4.1795,-4.1764,-4.1793,-4.1792,-4.1767,-4.185,-4.1818,-4.1827,-4.1867,-4.1951,-4.1957,-4.1963,-4.2017,-4.203,-4.2042,0,0,0,0,0,0,-4.1714,-4.1722,-4.1705,-4.1772,-4.1787,-4.1794,-4.183,-4.181,-4.1834,-4.1827,-4.1809,-4.1812,-4.1868,-4.1873,-4.1837,-4.1937,-4.1895,-4.1903,-4.1933,-4.1946,-4.1956,-4.1953,-4.1789,0,0,0,0,0,-4.1734,-4.1769,-4.1773,-4.1831,-4.184,-4.1834,-4.1851,-4.184,-4.1854,-4.186,-4.1864,-4.1878,-4.1907,-4.1927,-4.1953,-4.2022,-4.2023,-4.2054,-4.2064,-4.2072,-4.208,-4.2114,-4.2127,-4.1986,-4.1986,-4.1986,0,0,-4.1776,-4.1784,-4.1807,-4.1842,-4.1853,-4.1887,-4.1839,-4.1879,-4.1904,-4.1866,-4.1916,-4.1919,-4.1934,-4.1994,-4.2021,-4.2,-4.2119,-4.208,-4.2087,-4.209,-4.2122,-4.2135,-4.2147,-4.199,-4.1989,-4.1989,0,0,-4.1869,-4.188,-4.1929,-4.194,-4.1956,-4.1951,-4.1963,-4.1973,-4.1973,-4.2023,-4.1995,-4.2024,-4.2075,-4.2086,-4.2098,-4.2193,-4.217,-4.2202,-4.2256,-4.229,-4.2301,-4.2311,-4.2343,-4.2355,-4.221,-4.221,-4.221,0,-4.1919,-4.1971,-4.1956,-4.1997,-4.2012,-4.198,-4.2028,-4.2039,-4.2063,-4.2074,-4.2049,-4.2111,-4.2119,-4.2181,-4.2204,-4.2215,-4.2226,-4.2201,-4.2301,-4.2311,-4.2319,-4.235,-4.2362,-4.2214,-4.2213,-4.2213,-4.2212,0,-4.203,-4.2066,-4.2104,-4.2127,-4.2147,-4.2191,-4.2181,-4.2203,-4.2189,-4.2186,-4.2236,-4.2244,-4.2271,-4.2285,-4.2272,-4.2344,-4.233,-4.2304,-4.2261,-4.2337,-4.2365,-4.2377,-4.2219,-4.2218,-4.2216,-4.2216,0,0,-4.216,-4.2174,-4.2187,-4.2197,-4.2211,-4.2238,-4.228,-4.2307,-4.2325,-4.2342,-4.2375,-4.2418,-4.2393,-4.2407,-4.2395,-4.2425,-4.2497,-4.2394,-4.2394,-4.2412,-4.2575,-4.2594,-4.2608,-4.2482,-4.2484,-4.2486,-4.2574,0,-4.2252,-4.2325,-4.2311,-4.2382,-4.2414,-4.2383,-4.2419,-4.2431,-4.2429,-4.2455,-4.2452,-4.2482,-4.2448,-4.2456,-4.2484,-4.2483,-4.253,-4.2476,-4.2512,-4.2513,-4.2508,-4.2623,-4.2644,-4.2726,-4.2585,-4.2587,-4.2588,0,-4.2369,-4.239,-4.2464,-4.2471,-4.2484,-4.2517,-4.2539,-4.2565,-4.2577,-4.2573,-4.2588,-4.257,-4.2609,-4.2566,-4.262,-4.2583,-4.2597,-4.2598,-4.2601,-4.2603,-4.2555,-4.2627,-4.2753,-4.2764,-4.2606,-4.2604,-4.2603,0,-4.2454,-4.2501,-4.2551,-4.256,-4.257,-4.2594,-4.2599,-4.2608,-4.2625,-4.2644,-4.2653,-4.2677,-4.269,-4.2707,-4.2695,-4.2665,-4.275,-4.2706,-4.2747,-4.2747,-4.2766,-4.2765,-4.2894,-4.2777,-4.2777,-4.2776,-4.2776,0,-4.2558,-4.2604,-4.2589,-4.2619,-4.2669,-4.2652,-4.2702,-4.2703,-4.2712,-4.2741,-4.2715,-4.2743,-4.2725,-4.2751,-4.2741,-4.2786,-4.2793,-4.279,-4.2786,-4.2792,-4.2792,-4.28,-4.2793,-4.278,-4.2779,-4.2778,-4.2778,0,-4.2661,-4.2654,-4.2705,-4.271,-4.2712,-4.2749,-4.2752,-4.278,-4.2776,-4.2813,-4.282,-4.2813,-4.2842,-4.2832,-4.2863,-4.2856,-4.2913,-4.2903,-4.2909,-4.2906,-4.2947,-4.2943,-4.3085,-4.3102,-4.2975,-4.2976,-4.2977,0,-4.2727,-4.2762,-4.277,-4.2788,-4.2795,-4.2824,-4.284,-4.2824,-4.2842,-4.2857,-4.2882,-4.2909,-4.2929,-4.2977,-4.2974,-4.2997,-4.2986,-4.3034,-4.2989,-4.2993,-4.2985,-4.2983,-4.2986,-4.3043,-4.3045,-4.3046,-4.3047,0,-4.2845,-4.2839,-4.2863,-4.2886,-4.2906,-4.2923,-4.2937,-4.2953,-4.2938,-4.2959,-4.2988,-4.3004,-4.3035,-4.3061,-4.3081,-4.3085,-4.3063,-4.3061,-4.3071,-4.3076,-4.3078,-4.3076,-4.2932,-4.3058,-4.3057,-4.3056,-4.3055,-4.3055,-4.2931,-4.2959,-4.2969,-4.2996,-4.3006,-4.3019,-4.3045,-4.3043,-4.3068,-4.3092,-4.3081,-4.3114,-4.3123,-4.3148,-4.3155,-4.318,-4.3161,-4.3177,-4.318,-4.3184,-4.3189,-4.3075,-4.3184,-4.3183,-4.3183,-4.3183,-4.3183,0,-4.3046,-4.305,-4.3076,-4.3096,-4.3117,-4.3095,-4.311,-4.3128,-4.3158,-4.3169,-4.3189,-4.3222,-4.3246,-4.3245,-4.3268,-4.3288,-4.3278,-4.3294,-4.3292,-4.3293,-4.3205,-4.3193,-4.3301,-4.3301,-4.3301,-4.3301,-4.3301,-4.3301,-4.3108,-4.3154,-4.3149,-4.3199,-4.3202,-4.3235,-4.3245,-4.3257,-4.3265,-4.3302,-4.3323,-4.3322,-4.3327,-4.3349,-4.3371,-4.3369,-4.3378,-4.3398,-4.3393,-4.3311,-4.3299,-4.3288,-4.3277,-4.34,-4.3401,-4.3478,-4.3479,-4.348]}]]